User: anonymous
Location: Seminole
(32.7190°N, 102.6440°W)
Time: 08:57:35
(UTC-05:00)
Language:

Meteor 2-10 - Orbit

View from above orbital plane
View from above orbital plane
View from above satellite
View from above satellite

Ground track
Ground track

The orbit data is extracted from the following two-line orbital elements,

1 14452U 83109A   14112.70927076  .00000198  00000-0  73473-4 0  4816
2 14452 081.1612 158.4170 0092003 120.5278 240.5023 14.26220505584877
Epoch (UTC): 22 April 2014 17:01:20
Eccentricity: 0.0092003
inclination: 81.1612°
perigee height: 738 km
apogee height: 870 km
right ascension of ascending node: 158.4170°
argument of perigee: 120.5278°
revolutions per day: 14.26220505
mean anomaly at epoch: 240.5023°
orbit number at epoch: 58487

The dashed part of the orbit path shows where the satellite is in the earth's shadow,  

DLR